[[{"header":{"parameterUnit":"m.s-1","parameterCategory":1,"la1":30.2991,"la2":30.254,"lo1":-89.0895,"lo2":-89.0444,"dy":0.0017,"dx":0.0017,"nx":28,"ny":28,"refTime":"2024-08-01T03:00:00:Z","depth":0,"parameterNumber":2,"parameterNumberName":"U-component_of_WINDS"},"data":[0,0,0,0,0,0,0,0,0,0,0,0,0,0,0,0,0,0,0,0,0,0,0,0,0,0,0,0,0,0,0,0,0,0,0,0,0,0,0,0,0,0,0,0,0,0,0,0,0,0,0,0,0,0,0,0,0,0,0.5556,0.5557,0,0.5677,0.5678,0.5679,0.5706,0.5705,0.5705,0.5704,0.5832,0.5836,0.584,0,0,0,0,0,0,0,0,0,0,0,0,0,0.5353,0.5357,0.5556,0.5557,0.5559,0.5676,0.5678,0.568,0.5706,0.5705,0.5704,0.5703,0.5831,0.5835,0.5841,0,0,0,0,0,0,0,0,0,0,0,0,0,0.5454,0.5358,0.5556,0.5586,0.559,0.5676,0.5678,0.568,0.5707,0.5705,0.5704,0.5703,0.5829,0.5835,0.5841,0.5906,0,0,0.5861,0.5863,0,0,0,0,0,0,0,0,0.5448,0.5462,0.558,0.5584,0.5589,0.5675,0.5653,0.5756,0.5707,0.5663,0.5704,0.5702,0.5781,0.5791,0.5817,0.5912,0.5918,0.5861,0.5865,0.5868,0.587,0,0,0,0,0,0,0,0.5441,0.5457,0.5604,0.5582,0.5587,0.5595,0.5608,0.5673,0.5728,0.5666,0.5669,0.5682,0.5783,0.5811,0.582,0.592,0.5861,0.5867,0.5871,0.5873,0.6075,0.6076,0,0,0,0,0,0,0.5428,0.5451,0.56,0.5607,0.5514,0.56,0.5615,0.5649,0.5727,0.5738,0.5683,0.5683,0.5801,0.5813,0.5825,0.5906,0.5868,0.5874,0.5877,0.6073,0.6075,0.6077,0,0,0,0,0,0,0.5424,0.5441,0.5595,0.553,0.555,0.5605,0.5643,0.5652,0.5679,0.574,0.575,0.5701,0.58,0.5816,0.5886,0.5911,0.5876,0.5882,0.6071,0.6074,0.6076,0.6069,0,0,0,0,0,0,0.5418,0.544,0.5464,0.553,0.5553,0.5653,0.5645,0.5655,0.569,0.569,0.5759,0.5769,0.58,0.5876,0.5892,0.5919,0.5887,0.6069,0.6072,0.6075,0.6067,0.6071,0.6074,0,0,0,0,0,0.5411,0.5458,0.5465,0.5483,0.5584,0.5654,0.5668,0.5701,0.5691,0.5717,0.5756,0.5767,0.5905,0.5883,0.5901,0.593,0.6068,0.6072,0.6075,0.6066,0.607,0.6074,0,0,0,0,0,0,0.5396,0.5467,0.5476,0.5546,0.5593,0.5658,0.5692,0.5704,0.5756,0.5755,0.5796,0.5811,0.5878,0.5911,0.5885,0.5997,0.5987,0.5994,0.5973,0.5978,0.5981,0.5972,0.5892,0,0,0,0,0,0.54,0.5449,0.551,0.5566,0.5589,0.5636,0.5668,0.5689,0.574,0.5761,0.5805,0.5856,0.5911,0.5946,0.6,0.6072,0.6088,0.6101,0.6104,0.6107,0.6113,0.6153,0.616,0.6088,0.6088,0.6088,0,0,0.5411,0.5456,0.5485,0.5564,0.5603,0.5655,0.5653,0.5707,0.5746,0.577,0.5838,0.5872,0.5931,0.6002,0.6036,0.6032,0.6136,0.6111,0.6113,0.6118,0.6158,0.6164,0.617,0.6091,0.609,0.609,0,0,0.5456,0.5495,0.5546,0.5585,0.5644,0.5674,0.5686,0.575,0.5773,0.5841,0.586,0.5907,0.6001,0.6042,0.6076,0.6136,0.6148,0.6152,0.617,0.6209,0.6214,0.622,0.6241,0.6248,0.6158,0.6158,0.6158,0,0.5462,0.5538,0.5571,0.5624,0.5658,0.5681,0.5733,0.577,0.5844,0.5868,0.5862,0.5979,0.6021,0.6102,0.6116,0.6143,0.6158,0.6145,0.6211,0.6216,0.6222,0.6243,0.6251,0.6158,0.6158,0.6158,0.6158,0,0.5543,0.5596,0.563,0.5699,0.5737,0.579,0.5831,0.5867,0.5884,0.5916,0.5986,0.6036,0.61,0.6121,0.614,0.6205,0.6201,0.6202,0.6192,0.6228,0.6248,0.6257,0.6158,0.6158,0.6158,0.6158,0,0,0.5583,0.5668,0.568,0.5712,0.5778,0.582,0.5874,0.5935,0.5965,0.6015,0.6062,0.614,0.6141,0.6179,0.6203,0.6237,0.6281,0.6234,0.6236,0.6241,0.6356,0.6354,0.6363,0.6289,0.6291,0.6292,0.6351,0,0.5636,0.5731,0.5762,0.5842,0.5891,0.5913,0.596,0.6006,0.6037,0.6084,0.6119,0.6174,0.6172,0.6195,0.6229,0.6268,0.6305,0.6264,0.6334,0.6336,0.6318,0.6374,0.6372,0.6425,0.6359,0.636,0.6361,0,0.5711,0.5761,0.5845,0.5905,0.5927,0.5968,0.6026,0.6071,0.6124,0.6145,0.6186,0.6206,0.6264,0.625,0.6331,0.6303,0.6334,0.6357,0.636,0.6368,0.6351,0.6383,0.6443,0.645,0.6374,0.6373,0.6372,0,0.5732,0.582,0.5882,0.5908,0.5979,0.6008,0.6039,0.6091,0.6125,0.6177,0.62,0.6258,0.629,0.6335,0.6371,0.6357,0.6448,0.6438,0.6468,0.6467,0.6486,0.6485,0.6551,0.6505,0.6505,0.6505,0.6505,0,0.5788,0.5839,0.5892,0.593,0.5987,0.6022,0.6079,0.6111,0.6157,0.6203,0.6225,0.6268,0.6313,0.6361,0.639,0.6452,0.6467,0.6486,0.6493,0.6484,0.6481,0.6504,0.6501,0.6507,0.6507,0.6506,0.6506,0,0.5821,0.5858,0.5927,0.5988,0.6005,0.6044,0.6097,0.6136,0.6167,0.6224,0.624,0.629,0.6348,0.6388,0.6463,0.6483,0.655,0.6557,0.6532,0.6535,0.6563,0.656,0.6647,0.666,0.6605,0.6606,0.6606,0,0.5855,0.5894,0.5959,0.599,0.6021,0.6071,0.6106,0.6142,0.6178,0.6241,0.6272,0.6331,0.6381,0.6473,0.6517,0.6575,0.6583,0.661,0.6592,0.6581,0.6583,0.658,0.6585,0.6612,0.6613,0.6613,0.6613,0,0.5911,0.5927,0.5976,0.6031,0.6071,0.6117,0.6163,0.6188,0.6232,0.6271,0.633,0.6368,0.6444,0.6503,0.6565,0.6599,0.6614,0.6618,0.6628,0.662,0.6603,0.6612,0.6539,0.6616,0.6616,0.6616,0.6616,0.6616,0.5945,0.5981,0.6032,0.6085,0.6123,0.6165,0.6204,0.6239,0.6289,0.6352,0.6371,0.6432,0.6485,0.6569,0.6603,0.6653,0.6651,0.6665,0.6669,0.6672,0.6671,0.6595,0.6664,0.6664,0.6664,0.6664,0.6664,0,0.6002,0.6035,0.6084,0.6147,0.6189,0.6198,0.6249,0.6284,0.6337,0.6384,0.6432,0.65,0.6557,0.6604,0.6664,0.6694,0.6702,0.6708,0.6707,0.6714,0.667,0.6655,0.67,0.67,0.67,0.67,0.67,0.67,0.6036,0.6097,0.6119,0.6199,0.6233,0.6292,0.632,0.636,0.6397,0.6471,0.6518,0.6548,0.6596,0.6658,0.6711,0.6724,0.6745,0.6749,0.6763,0.6721,0.6717,0.6713,0.67,0.6753,0.6753,0.6803,0.6804,0.6804]},{"header":{"parameterUnit":"m.s-1","parameterCategory":1,"la1":30.2991,"la2":30.254,"lo1":-89.0895,"lo2":-89.0444,"dy":0.0017,"dx":0.0017,"nx":28,"ny":28,"refTime":"2024-08-01T03:00:00:Z","depth":0,"parameterNumber":3,"parameterNumberName":"V-component_of_WINDS"},"data":[0,0,0,0,0,0,0,0,0,0,0,0,0,0,0,0,0,0,0,0,0,0,0,0,0,0,0,0,0,0,0,0,0,0,0,0,0,0,0,0,0,0,0,0,0,0,0,0,0,0,0,0,0,0,0,0,0,0,1.87,1.87,0,1.8714,1.8714,1.8714,1.8713,1.8713,1.8713,1.8713,1.8723,1.8723,1.8724,0,0,0,0,0,0,0,0,0,0,0,0,0,1.8663,1.8663,1.87,1.87,1.87,1.8714,1.8714,1.8715,1.8713,1.8713,1.8713,1.8712,1.8723,1.8723,1.8724,0,0,0,0,0,0,0,0,0,0,0,0,0,1.8678,1.8663,1.87,1.8701,1.8702,1.8714,1.8714,1.8715,1.8713,1.8713,1.8713,1.8712,1.8722,1.8723,1.8724,1.8734,0,0,1.8726,1.8726,0,0,0,0,0,0,0,0,1.8677,1.8679,1.8701,1.8701,1.8702,1.8712,1.8705,1.8721,1.8713,1.8709,1.8713,1.8712,1.8719,1.872,1.8723,1.8735,1.8735,1.8726,1.8726,1.8727,1.8727,0,0,0,0,0,0,0,1.8676,1.8679,1.8705,1.8701,1.8701,1.8698,1.87,1.8708,1.8715,1.8709,1.8709,1.8711,1.8719,1.8723,1.8723,1.8735,1.8726,1.8727,1.8727,1.8727,1.8749,1.875,0,0,0,0,0,0,1.8675,1.8678,1.8705,1.8706,1.8688,1.8699,1.8701,1.8709,1.8715,1.8716,1.8711,1.8711,1.8721,1.8723,1.8724,1.8733,1.8727,1.8727,1.8728,1.8749,1.8749,1.875,0,0,0,0,0,0,1.8675,1.8678,1.8704,1.8692,1.8695,1.87,1.8708,1.8709,1.8713,1.8717,1.8718,1.8714,1.8721,1.8723,1.8731,1.8733,1.8728,1.8728,1.8749,1.8749,1.875,1.8753,0,0,0,0,0,0,1.8674,1.8678,1.8684,1.8692,1.8696,1.8714,1.8709,1.871,1.8714,1.8714,1.872,1.872,1.8721,1.873,1.8731,1.8734,1.8729,1.8749,1.8749,1.8749,1.8753,1.8753,1.8754,0,0,0,0,0,1.8672,1.8685,1.8685,1.8688,1.8704,1.8714,1.8716,1.8718,1.8715,1.8719,1.8721,1.872,1.8733,1.873,1.8732,1.8735,1.8749,1.8749,1.8749,1.8753,1.8753,1.8754,0,0,0,0,0,0,1.8678,1.8686,1.8686,1.8702,1.8707,1.8714,1.872,1.872,1.8725,1.8724,1.8725,1.8726,1.8733,1.8735,1.8732,1.8742,1.874,1.8741,1.8741,1.8742,1.8743,1.8742,1.8729,0,0,0,0,0,1.8681,1.869,1.8696,1.8709,1.8712,1.8715,1.872,1.8721,1.8725,1.8727,1.873,1.8733,1.8737,1.874,1.8744,1.8753,1.8751,1.8755,1.8756,1.8756,1.8757,1.8756,1.8757,1.8751,1.8751,1.8751,0,0,1.8687,1.8693,1.8699,1.871,1.8715,1.8721,1.8718,1.8726,1.8729,1.8728,1.8735,1.8736,1.8739,1.8746,1.8749,1.8748,1.8757,1.8757,1.8757,1.8757,1.8756,1.8757,1.8757,1.8751,1.8751,1.8751,0,0,1.8702,1.8709,1.8718,1.8721,1.8727,1.8729,1.8731,1.8736,1.8737,1.8744,1.8742,1.8744,1.8753,1.8753,1.8755,1.8763,1.876,1.8764,1.8767,1.8767,1.8767,1.8767,1.8767,1.8767,1.8765,1.8765,1.8765,0,1.8709,1.8721,1.8723,1.873,1.8733,1.8732,1.8738,1.8741,1.8748,1.8748,1.8747,1.8754,1.8756,1.876,1.8762,1.8764,1.8763,1.8764,1.8767,1.8768,1.8768,1.8767,1.8767,1.8765,1.8765,1.8765,1.8765,0,1.8726,1.8734,1.874,1.8746,1.875,1.8757,1.8757,1.876,1.8759,1.8759,1.8763,1.8765,1.8767,1.8768,1.8768,1.8771,1.8769,1.8768,1.8765,1.8769,1.8768,1.8768,1.8765,1.8765,1.8765,1.8765,0,0,1.8748,1.8751,1.8753,1.8754,1.8757,1.8762,1.8766,1.8769,1.877,1.8773,1.8774,1.8778,1.8775,1.8776,1.8775,1.8775,1.8776,1.8772,1.8772,1.8771,1.8775,1.8775,1.8775,1.8774,1.8774,1.8774,1.8773,0,1.876,1.8771,1.877,1.8778,1.8782,1.8778,1.8781,1.8782,1.8781,1.8782,1.878,1.8781,1.8779,1.8779,1.8779,1.8776,1.8776,1.8776,1.8772,1.8772,1.8771,1.8775,1.8777,1.8776,1.8774,1.8774,1.8774,0,1.8778,1.878,1.8789,1.8787,1.8789,1.8792,1.8791,1.8794,1.8792,1.8791,1.879,1.8787,1.8787,1.8784,1.8782,1.8781,1.8779,1.8777,1.8777,1.8776,1.8773,1.8772,1.8777,1.8776,1.8774,1.8774,1.8774,0,1.8788,1.8794,1.8798,1.8799,1.8798,1.8799,1.8799,1.8797,1.8797,1.8795,1.8794,1.8793,1.8792,1.8789,1.8784,1.8783,1.878,1.8778,1.8777,1.8776,1.8776,1.8776,1.8779,1.8777,1.8777,1.8777,1.8777,0,1.8802,1.8806,1.8802,1.8805,1.8808,1.8805,1.8807,1.8806,1.8803,1.8803,1.8799,1.8798,1.8792,1.879,1.8785,1.8782,1.8782,1.8778,1.8777,1.8778,1.8778,1.8776,1.8775,1.8777,1.8777,1.8777,1.8777,0,1.8814,1.8813,1.8816,1.8814,1.8813,1.8815,1.8811,1.8812,1.8809,1.8808,1.8807,1.8802,1.8798,1.8793,1.8788,1.8784,1.878,1.8779,1.8781,1.878,1.8778,1.8777,1.8778,1.8776,1.8778,1.8778,1.8778,0,1.8823,1.8825,1.8822,1.8822,1.8821,1.8821,1.882,1.8816,1.8815,1.881,1.881,1.8805,1.8802,1.8795,1.8789,1.8783,1.8781,1.8781,1.878,1.8779,1.8778,1.8777,1.8775,1.8781,1.8781,1.8781,1.8782,0,1.8836,1.8833,1.8833,1.8831,1.883,1.8828,1.8826,1.8825,1.8819,1.8817,1.8813,1.881,1.8803,1.8798,1.879,1.8786,1.8781,1.8782,1.878,1.8781,1.8781,1.8778,1.878,1.8782,1.8782,1.8782,1.8782,1.8782,1.8845,1.8845,1.8842,1.884,1.8838,1.8834,1.8833,1.8829,1.8826,1.8821,1.8817,1.8812,1.8805,1.8795,1.8791,1.8784,1.8783,1.8782,1.8782,1.8781,1.878,1.8783,1.8783,1.8783,1.8783,1.8783,1.8783,0,1.8855,1.8852,1.885,1.8846,1.8844,1.884,1.8836,1.8833,1.8829,1.8824,1.8819,1.8812,1.8805,1.8797,1.8789,1.8785,1.8782,1.8783,1.8783,1.8781,1.8783,1.8784,1.8785,1.8785,1.8785,1.8785,1.8785,1.8785,1.886,1.886,1.8856,1.8852,1.8849,1.8844,1.8842,1.8837,1.8832,1.8824,1.8819,1.8814,1.8806,1.8796,1.8788,1.8786,1.8782,1.8783,1.8779,1.8781,1.8781,1.8781,1.8782,1.8782,1.8782,1.8777,1.8777,1.8777]}]]